Weather observations for the past three days for
Jesup-Wayne County Airport
| Date | Time (edt) | Wind (mph) | Vis. (mi.) | Weather | Sky Cond. | Temperature (ºF) | Relative Humidity | Wind Chill (°F) | Heat Index (°F) | Pressure | Precipitation (in) | ||||||
|---|---|---|---|---|---|---|---|---|---|---|---|---|---|---|---|---|---|
| Air | Dwpt | 6 hour | altimeter (in) | sea level (mb) | 1 hr | 3 hr | 6 hr | ||||||||||
| Max. | Min. | ||||||||||||||||
| 02 | 18:10 | NE 3 | 4.00 | Rain | BKN008 OVC012 | 60.8 | 59 | 94% | 29.91 | 0.0 | |||||||
| 02 | 17:50 | Calm | 10.00 | Overcast | OVC008 | 60.8 | 59 | 94% | 29.9 | 0.0 | |||||||
| 02 | 17:30 | N 6 | 5.00 | Fog/Mist | BKN008 OVC017 | 60.8 | 59 | 94% | 29.9 | 0.0 | |||||||
| 02 | 17:10 | N 7 | 7.00 | Overcast | SCT011 BKN017 OVC023 | 60.8 | 59 | 94% | 29.88 | 0.0 | |||||||
| 02 | 16:50 | Calm | 10.00 | Overcast | SCT013 OVC022 | 60.8 | 59 | 94% | 29.87 | 0.0 | |||||||
| 02 | 16:30 | N 6 | 10.00 | Overcast | OVC011 | 60.8 | 59 | 94% | 29.88 | 0.0 | |||||||
| 02 | 16:10 | N 5 | 10.00 | Overcast | BKN011 OVC020 | 60.8 | 59 | 94% | 29.87 | 0.0 | |||||||
| 02 | 15:50 | N 6 | 10.00 | Overcast | SCT009 BKN014 OVC020 | 60.8 | 59 | 94% | 29.87 | 0.0 | |||||||
| 02 | 15:30 | N 3 | 10.00 | Light Drizzle | BKN007 OVC014 | 59 | 59 | 100% | 29.87 | 0.0 | |||||||
| 02 | 15:10 | Calm | 10.00 | Drizzle | OVC007 | 59 | 59 | 100% | 29.88 | 0.0 | |||||||
| 02 | 14:50 | Calm | 10.00 | Rain | OVC007 | 59 | 59 | 100% | 29.87 | 0.0 | |||||||
| 02 | 14:30 | Calm | 10.00 | Light Drizzle | OVC007 | 59 | 59 | 100% | 29.88 | 0.0 | |||||||
| 02 | 14:10 | Calm | 10.00 | Rain | OVC007 | 60.8 | 59 | 94% | 29.87 | 0.0 | |||||||
| 02 | 13:50 | Calm | 10.00 | Drizzle | OVC007 | 60.8 | 59 | 94% | 29.87 | 0.0 | |||||||
| 02 | 13:35 | Calm | 10.00 | Drizzle | OVC007 | 60.8 | 59 | 94% | 29.87 | 0.0 | |||||||
| 02 | 12:50 | Calm | 10.00 | Overcast | BKN007 OVC010 | 59 | 59 | 100% | 29.85 | 0.0 | |||||||
| 02 | 12:30 | Calm | 10.00 | Overcast | OVC005 | 59 | 59 | 100% | 29.86 | 0.0 | |||||||
| 02 | 12:10 | Calm | 10.00 | Light Rain | BKN005 OVC008 | 59 | 59 | 100% | 29.87 | 0.0 | |||||||
| 02 | 11:50 | Calm | 5.00 | Rain | OVC005 | 59 | 57.2 | 94% | 29.88 | 0.0 | |||||||
| 02 | 11:30 | Calm | 7.00 | Rain | BKN003 OVC007 | 59 | 59 | 100% | 29.88 | 0.0 | |||||||
| 02 | 11:10 | Calm | 3.00 | Heavy Rain | BKN005 BKN026 OVC050 | 59 | 57.2 | 94% | 29.88 | 0.0 | |||||||
| 02 | 10:50 | Calm | 4.00 | Heavy Rain | BKN005 BKN026 OVC050 | 59 | 57.2 | 94% | 29.89 | 0.0 | |||||||
| 02 | 10:30 | Calm | 7.00 | Light Rain | OVC005 | 59 | 57.2 | 94% | 29.9 | 0.0 | |||||||
| 02 | 10:10 | Calm | 1.75 | Heavy Rain | OVC005 | 59 | 57.2 | 94% | 29.88 | 0.0 | |||||||
| 02 | 09:50 | Calm | 5.00 | Rain | BKN005 OVC036 | 59 | 57.2 | 94% | 29.89 | 0.0 | |||||||
| 02 | 09:30 | Calm | 5.00 | Heavy Rain | OVC005 | 59 | 57.2 | 94% | 29.91 | 0.0 | |||||||
| 02 | 09:10 | Calm | 5.00 | Heavy Rain | OVC005 | 59 | 57.2 | 94% | 29.9 | 0.0 | |||||||
| 02 | 08:50 | Calm | 7.00 | Rain | BKN005 BKN036 OVC050 | 59 | 57.2 | 94% | 29.9 | 0.0 | |||||||
| 02 | 08:30 | Calm | 7.00 | Rain | BKN005 BKN012 OVC035 | 59 | 57.2 | 94% | 29.89 | 0.0 | |||||||
| 02 | 08:10 | Calm | 7.00 | Rain | BKN005 BKN017 OVC050 | 59 | 59 | 100% | 29.88 | 0.0 | |||||||
| 02 | 07:50 | Calm | 2.50 | Rain | SCT005 BKN023 OVC037 | 59 | 59 | 100% | 29.87 | 0.0 | |||||||
| 02 | 07:30 | Calm | 10.00 | Rain | BKN005 OVC037 | 59 | 57.2 | 94% | 29.88 | 0.0 | |||||||
| 02 | 07:10 | Calm | 4.00 | Heavy Rain | OVC005 | 59 | 59 | 100% | 29.88 | 0.0 | |||||||
| 02 | 06:50 | Calm | 7.00 | Rain | OVC005 | 59 | 59 | 100% | 29.87 | 0.0 | |||||||
| 02 | 06:30 | Calm | 5.00 | Heavy Rain | OVC005 | 60.8 | 59 | 94% | 29.86 | 0.0 | |||||||
| 02 | 06:10 | Calm | 10.00 | Light Rain | OVC005 | 60.8 | 59 | 94% | 29.84 | 0.0 | |||||||
| 02 | 05:50 | Calm | 10.00 | Light Drizzle | OVC005 | 60.8 | 59 | 94% | 29.83 | 0.0 | |||||||
| 02 | 05:30 | Calm | 10.00 | Light Rain | OVC005 | 60.8 | 59 | 94% | 29.84 | 0.0 | |||||||
| 02 | 05:10 | Calm | 10.00 | Overcast | OVC005 | 60.8 | 59 | 94% | 29.84 | 0.0 | |||||||
| 02 | 04:50 | Calm | 10.00 | Light Drizzle | OVC005 | 60.8 | 59 | 94% | 29.83 | 0.0 | |||||||
| 02 | 04:30 | Calm | 10.00 | Overcast | BKN007 BKN014 OVC035 | 60.8 | 59 | 94% | 29.87 | 0.0 | |||||||
| 02 | 04:10 | Calm | 10.00 | Overcast | SCT007 BKN014 OVC035 | 60.8 | 59 | 94% | 29.89 | 0.0 | |||||||
| 02 | 03:50 | Calm | 10.00 | Overcast | SCT008 BKN014 OVC035 | 60.8 | 59 | 94% | 29.89 | 0.0 | |||||||
| 02 | 03:30 | Calm | 10.00 | Light Rain | BKN014 BKN034 OVC047 | 60.8 | 59 | 94% | 29.89 | 0.0 | |||||||
| 02 | 03:10 | Calm | 10.00 | Light Rain | SCT014 BKN035 OVC060 | 60.8 | 59 | 94% | 29.9 | 0.0 | |||||||
| 02 | 02:50 | Calm | 10.00 | Rain | SCT014 BKN035 OVC065 | 60.8 | 59 | 94% | 29.9 | 0.0 | |||||||
| 02 | 02:30 | Calm | 10.00 | Overcast | BKN033 OVC065 | 60.8 | 59 | 94% | 29.9 | 0.0 | |||||||
| 02 | 02:10 | Calm | 10.00 | Overcast | OVC033 | 60.8 | 59 | 94% | 29.92 | 0.0 | |||||||
| 02 | 01:50 | Calm | 10.00 | Overcast | BKN033 OVC070 | 62.6 | 59 | 88% | 29.92 | 0.0 | |||||||
| 02 | 01:30 | Calm | 10.00 | Overcast | SCT037 OVC070 | 62.6 | 59 | 88% | 29.92 | 0.0 | |||||||
| 02 | 01:10 | Calm | 10.00 | Overcast | BKN039 OVC080 | 60.8 | 59 | 94% | 29.91 | 0.0 | |||||||
| 02 | 00:50 | Calm | 10.00 | Overcast | SCT041 OVC080 | 62.6 | 59 | 88% | 29.92 | 0.0 | |||||||
| 02 | 00:30 | Calm | 10.00 | Mostly Cloudy | BKN085 BKN090 | 62.6 | 59 | 88% | 29.91 | 0.0 | |||||||
| 02 | 00:10 | Calm | 10.00 | Mostly Cloudy | SCT085 BKN110 | 62.6 | 59 | 88% | 29.9 | 0.0 | |||||||
| 01 | 23:50 | Calm | 10.00 | Partly Cloudy | SCT110 | 62.6 | 59 | 88% | 29.9 | 0.0 | |||||||
| 01 | 23:30 | Calm | 10.00 | Fair | CLR | 62.6 | 59 | 88% | 29.91 | 0.0 | |||||||
| 01 | 23:10 | Calm | 10.00 | Partly Cloudy | SCT100 SCT120 | 62.6 | 59 | 88% | 29.92 | 0.0 | |||||||
| 01 | 22:50 | Calm | 10.00 | Mostly Cloudy | BKN110 | 60.8 | 59 | 94% | 29.92 | 0.0 | |||||||
| 01 | 22:30 | Calm | 10.00 | Light Rain | BKN120 | 62.6 | 60.8 | 94% | 29.93 | 0.0 | |||||||
| 01 | 22:10 | Calm | 10.00 | Light Drizzle | SCT100 SCT120 | 62.6 | 60.8 | 94% | 29.91 | 0.0 | |||||||
| 01 | 21:50 | Calm | 10.00 | Light Drizzle | SCT090 BKN120 | 62.6 | 60.8 | 94% | 29.91 | 0.0 | |||||||
| 01 | 21:30 | Calm | 10.00 | Light Drizzle | OVC110 | 62.6 | 60.8 | 94% | 29.9 | 0.0 | |||||||
| 01 | 21:10 | Calm | 10.00 | Light Rain | OVC110 | 62.6 | 60.8 | 94% | 29.91 | 0.0 | |||||||
| 01 | 20:50 | Calm | 10.00 | Light Rain | OVC110 | 64.4 | 60.8 | 88% | 29.92 | 0.0 | |||||||
| 01 | 20:30 | Calm | 10.00 | Light Drizzle | OVC110 | 64.4 | 60.8 | 88% | 29.93 | 0.0 | |||||||
| 01 | 20:10 | Calm | 10.00 | Light Rain | OVC110 | 64.4 | 60.8 | 88% | 29.92 | 0.0 | |||||||
| 01 | 19:50 | Calm | 10.00 | Mostly Cloudy | BKN110 | 64.4 | 60.8 | 88% | 29.91 | 0.0 | |||||||
| 01 | 19:30 | Calm | 10.00 | Partly Cloudy | SCT110 | 66.2 | 62.6 | 88% | 29.9 | 0.0 | |||||||
| 01 | 19:10 | Calm | 10.00 | Fair | CLR | 66.2 | 62.6 | 88% | 29.89 | 0.0 | |||||||
| 01 | 18:50 | Calm | 10.00 | Partly Cloudy | SCT055 | 66.2 | 62.6 | 88% | 29.88 | 0.0 | |||||||
| 01 | 18:30 | Calm | 10.00 | Mostly Cloudy | SCT048 BKN055 | 66.2 | 62.6 | 88% | 29.89 | 0.0 | |||||||
| 01 | 18:10 | Calm | 10.00 | Overcast | OVC050 | 64.4 | 60.8 | 88% | 29.89 | 0.0 | |||||||
| 01 | 17:50 | Calm | 10.00 | Light Drizzle | OVC050 | 64.4 | 60.8 | 88% | 29.9 | 0.0 | |||||||
| 01 | 17:30 | Calm | 10.00 | Rain | SCT042 OVC050 | 64.4 | 60.8 | 88% | 29.91 | 0.0 | |||||||
| 01 | 17:10 | Calm | 10.00 | Overcast | OVC044 | 64.4 | 60.8 | 88% | 29.91 | 0.0 | |||||||
| 01 | 16:50 | Calm | 2.50 | Rain | SCT018 SCT027 OVC044 | 64.4 | 60.8 | 88% | 29.91 | 0.0 | |||||||
| 01 | 16:30 | Calm | 10.00 | Overcast | OVC044 | 69.8 | 57.2 | 64% | 29.89 | 0.0 | |||||||
| 01 | 16:10 | Calm | 10.00 | Overcast | SCT044 BKN050 OVC060 | 71.6 | 55.4 | 57% | 29.89 | 0.0 | |||||||
| 01 | 15:50 | Calm | 10.00 | Overcast | BKN048 OVC060 | 71.6 | 55.4 | 57% | 29.9 | 0.0 | |||||||
| 01 | 15:30 | N 5 | 10.00 | Overcast | BKN048 OVC050 | 71.6 | 57.2 | 61% | 29.91 | 0.0 | |||||||
| 01 | 15:10 | N 7 | 10.00 | Overcast | BKN060 OVC070 | 73.4 | 59 | 61% | 29.92 | 0.0 | |||||||
| 01 | 14:50 | Calm | 10.00 | Overcast | SCT039 BKN055 OVC070 | 73.4 | 60.8 | 65% | 29.92 | 0.0 | |||||||
| 01 | 14:30 | NW 7 | 10.00 | Overcast | BKN039 BKN065 OVC080 | 77 | 57.2 | 51% | 79 | 29.92 | 0.0 | ||||||
| 01 | 14:10 | N 8 | 10.00 | Overcast | BKN039 BKN065 OVC080 | 77 | 57.2 | 51% | 79 | 29.92 | 0.0 | ||||||
| 01 | 13:50 | Calm | 10.00 | Overcast | SCT045 OVC065 | 77 | 57.2 | 51% | 79 | 29.92 | 0.0 | ||||||
| 01 | 13:30 | NW 5 | 10.00 | Overcast | OVC065 | 77 | 55.4 | 47% | 79 | 29.92 | 0.0 | ||||||
| 01 | 13:10 | Calm | 10.00 | Overcast | BKN065 OVC090 | 77 | 59 | 54% | 79 | 29.92 | 0.0 | ||||||
| 01 | 12:50 | Calm | 10.00 | Overcast | BKN055 OVC075 | 77 | 59 | 54% | 79 | 29.93 | 0.0 | ||||||
| 01 | 12:30 | Calm | 10.00 | Overcast | SCT055 OVC075 | 77 | 59 | 54% | 79 | 29.94 | 0.0 | ||||||
| 01 | 12:10 | Calm | 10.00 | Overcast | BKN060 OVC075 | 73.4 | 59 | 61% | 29.95 | 0.0 | |||||||
| 01 | 11:50 | Calm | 10.00 | Overcast | OVC060 | 71.6 | 60.8 | 69% | 29.94 | 0.0 | |||||||
| 01 | 11:30 | Calm | 10.00 | Overcast | OVC060 | 69.8 | 60.8 | 73% | 29.95 | 0.0 | |||||||
| 01 | 11:10 | Calm | 10.00 | Overcast | BKN065 OVC090 | 69.8 | 59 | 69% | 29.95 | 0.0 | |||||||
| 01 | 10:50 | Calm | 10.00 | Overcast | SCT065 OVC090 | 69.8 | 60.8 | 73% | 29.95 | 0.0 | |||||||
| 01 | 10:30 | Calm | 10.00 | Overcast | BKN070 BKN080 OVC090 | 69.8 | 60.8 | 73% | 29.94 | 0.0 | |||||||
| 01 | 10:10 | Calm | 10.00 | Light Rain | OVC070 | 68 | 60.8 | 78% | 29.95 | 0.0 | |||||||
| 01 | 09:50 | Calm | 10.00 | Overcast | BKN070 OVC080 | 68 | 59 | 73% | 29.93 | 0.0 | |||||||
| 01 | 09:30 | Calm | 10.00 | Overcast | SCT048 BKN080 OVC100 | 68 | 59 | 73% | 29.93 | 0.0 | |||||||
| 01 | 09:10 | Calm | 10.00 | Overcast | OVC090 | 68 | 59 | 73% | 29.93 | 0.0 | |||||||
| 01 | 08:50 | Calm | 10.00 | Overcast | OVC090 | 66.2 | 59 | 78% | 29.93 | 0.0 | |||||||
| 01 | 08:30 | Calm | 10.00 | Overcast | SCT049 SCT060 OVC090 | 66.2 | 59 | 78% | 29.92 | 0.0 | |||||||
| 01 | 08:15 | Calm | 10.00 | Light Drizzle | SCT049 SCT055 OVC090 | 68 | 59 | 73% | 29.92 | 0.0 | |||||||
| 01 | 07:50 | Calm | 10.00 | Overcast | OVC100 | 68 | 59 | 73% | 29.91 | 0.0 | |||||||
| 01 | 07:30 | Calm | 10.00 | Overcast | OVC100 | 68 | 59 | 73% | 29.91 | 0.0 | |||||||
| 01 | 07:10 | Calm | 10.00 | Overcast | OVC110 | 68 | 59 | 73% | 29.91 | 0.0 | |||||||
| 01 | 06:50 | Calm | 10.00 | Overcast | OVC110 | 68 | 59 | 73% | 29.9 | 0.0 | |||||||
| 01 | 06:30 | Calm | 10.00 | Overcast | OVC120 | 66.2 | 60.8 | 83% | 29.89 | 0.0 | |||||||
| 01 | 06:10 | Calm | 10.00 | Overcast | SCT090 OVC120 | 68 | 59 | 73% | 29.89 | 0.0 | |||||||
| 01 | 05:50 | Calm | 10.00 | Mostly Cloudy | BKN120 | 68 | 59 | 73% | 29.89 | 0.0 | |||||||
| 01 | 05:30 | Calm | 10.00 | Fair | CLR | 69.8 | 59 | 69% | 29.88 | 0.0 | |||||||
| 01 | 04:50 | Calm | 10.00 | Partly Cloudy | SCT050 | 69.8 | 59 | 69% | 29.88 | 0.0 | |||||||
| 01 | 04:30 | Calm | 10.00 | Partly Cloudy | SCT060 | 69.8 | 59 | 69% | 29.88 | 0.0 | |||||||
| 01 | 04:10 | Calm | 10.00 | Partly Cloudy | SCT048 SCT060 | 69.8 | 60.8 | 73% | 29.88 | 0.0 | |||||||
| 01 | 03:50 | Calm | 10.00 | Overcast | SCT050 OVC060 | 69.8 | 60.8 | 73% | 29.88 | 0.0 | |||||||
| 01 | 03:30 | Calm | 10.00 | Overcast | SCT048 OVC060 | 71.6 | 60.8 | 69% | 29.88 | 0.0 | |||||||
| 01 | 03:10 | Calm | 10.00 | Overcast | BKN048 OVC060 | 71.6 | 60.8 | 69% | 29.88 | 0.0 | |||||||
| 01 | 02:50 | Calm | 10.00 | Overcast | BKN048 OVC060 | 71.6 | 60.8 | 69% | 29.89 | 0.0 | |||||||
| 01 | 02:30 | Calm | 10.00 | Overcast | BKN048 OVC070 | 71.6 | 60.8 | 69% | 29.88 | 0.0 | |||||||
| 01 | 02:10 | Calm | 10.00 | Overcast | BKN050 OVC065 | 71.6 | 60.8 | 69% | 29.88 | 0.0 | |||||||
| 01 | 01:50 | Calm | 10.00 | Overcast | SCT047 OVC055 | 71.6 | 60.8 | 69% | 29.88 | 0.0 | |||||||
| 01 | 01:30 | Calm | 10.00 | Overcast | OVC060 | 71.6 | 60.8 | 69% | 29.89 | 0.0 | |||||||
| 01 | 01:10 | Calm | 10.00 | Overcast | SCT048 OVC060 | 73.4 | 60.8 | 65% | 29.89 | 0.0 | |||||||
| 01 | 00:50 | Calm | 10.00 | Overcast | OVC050 | 73.4 | 60.8 | 65% | 29.9 | 0.0 | |||||||
| 01 | 00:30 | Calm | 10.00 | Overcast | OVC050 | 73.4 | 60.8 | 65% | 29.9 | 0.0 | |||||||
| 01 | 00:10 | Calm | 10.00 | Partly Cloudy | SCT060 | 71.6 | 60.8 | 69% | 29.89 | 0.0 | |||||||
| 30 | 23:50 | Calm | 10.00 | Fair | CLR | 71.6 | 60.8 | 69% | 29.89 | 0.0 | |||||||
| 30 | 23:30 | Calm | 10.00 | Fair | CLR | 73.4 | 60.8 | 65% | 29.9 | 0.0 | |||||||
| 30 | 23:10 | Calm | 10.00 | Partly Cloudy | SCT060 SCT080 | 75.2 | 60.8 | 61% | 77 | 29.89 | 0.0 | ||||||
| 30 | 22:50 | Calm | 10.00 | Mostly Cloudy | BKN060 | 75.2 | 60.8 | 61% | 77 | 29.9 | 0.0 | ||||||
| 30 | 22:30 | Calm | 10.00 | Overcast | OVC060 | 77 | 60.8 | 57% | 79 | 29.9 | 0.0 | ||||||
| 30 | 22:10 | Calm | 10.00 | Overcast | OVC060 | 77 | 60.8 | 57% | 79 | 29.89 | 0.0 | ||||||
| 30 | 21:55 | Calm | 10.00 | Overcast | OVC060 | 77 | 60.8 | 57% | 79 | 29.88 | 0.0 | ||||||
| 30 | 21:30 | Calm | 10.00 | Mostly Cloudy | BKN060 | 77 | 60.8 | 57% | 79 | 29.87 | 0.0 | ||||||
| 30 | 21:10 | Calm | 10.00 | Fair | CLR | 78.8 | 60.8 | 54% | 80 | 29.85 | 0.0 | ||||||
| 30 | 20:50 | Calm | 10.00 | Fair | CLR | 78.8 | 60.8 | 54% | 80 | 29.84 | 0.0 | ||||||
| 30 | 20:30 | Calm | 10.00 | Fair | CLR | 78.8 | 60.8 | 54% | 80 | 29.83 | 0.0 | ||||||
| 30 | 20:10 | Calm | 10.00 | Partly Cloudy | SCT055 | 80.6 | 60.8 | 51% | 81 | 29.82 | 0.0 | ||||||
| 30 | 19:30 | Calm | 10.00 | Mostly Cloudy | BKN055 BKN070 | 82.4 | 60.8 | 48% | 83 | 29.81 | 0.0 | ||||||
| 30 | 19:10 | Calm | 10.00 | Mostly Cloudy | SCT055 SCT070 BKN100 | 84.2 | 60.8 | 45% | 84 | 29.8 | 0.0 | ||||||
| 30 | 18:50 | Calm | 10.00 | Overcast | SCT055 BKN070 OVC100 | 86 | 62.6 | 46% | 87 | 29.8 | 0.0 | ||||||
| 30 | 18:30 | Calm | 10.00 | Overcast | SCT055 BKN070 OVC110 | 84.2 | 62.6 | 48% | 85 | 29.8 | 0.0 | ||||||
| 30 | 18:10 | Calm | 10.00 | Overcast | SCT055 OVC100 | 84.2 | 62.6 | 48% | 85 | 29.8 | 0.0 | ||||||
| 30 | 17:50 | W 5 | 10.00 | Overcast | SCT055 OVC090 | 84.2 | 62.6 | 48% | 85 | 29.8 | 0.0 | ||||||
| 30 | 17:35 | NW 6 | 10.00 | Overcast | SCT055 SCT065 OVC090 | 84.2 | 62.6 | 48% | 85 | 29.8 | 0.0 | ||||||
| 30 | 17:10 | NW 6 | 10.00 | Overcast | SCT050 SCT065 OVC080 | 86 | 62.6 | 46% | 87 | 29.79 | 0.0 | ||||||
| 30 | 16:50 | NW 7 | 10.00 | Partly Cloudy | SCT050 SCT065 SCT090 | 86 | 62.6 | 46% | 87 | 29.79 | 0.0 | ||||||
| 30 | 16:30 | W 6 | 10.00 | Mostly Cloudy | SCT050 BKN065 BKN080 | 87.8 | 62.6 | 43% | 88 | 29.79 | 0.0 | ||||||
| 30 | 16:10 | W 5 | 10.00 | Mostly Cloudy | SCT050 BKN065 BKN080 | 86 | 62.6 | 46% | 87 | 29.79 | 0.0 | ||||||
| 30 | 15:50 | N 8 | 10.00 | Partly Cloudy | SCT050 SCT065 | 87.8 | 62.6 | 43% | 88 | 29.79 | 0.0 | ||||||
| 30 | 15:30 | NW 7 | 10.00 | Mostly Cloudy | SCT050 BKN065 | 86 | 62.6 | 46% | 87 | 29.8 | 0.0 | ||||||
| 30 | 15:10 | W 6 G 16 | 10.00 | Mostly Cloudy | SCT048 SCT060 BKN075 | 87.8 | 62.6 | 43% | 88 | 29.81 | 0.0 | ||||||
| 30 | 14:50 | NW 8 G 16 | 10.00 | Partly Cloudy | SCT046 SCT070 | 86 | 62.6 | 46% | 87 | 29.82 | 0.0 | ||||||
| 30 | 14:30 | W 8 | 10.00 | Partly Cloudy | SCT044 SCT050 | 86 | 64.4 | 49% | 87 | 29.82 | 0.0 | ||||||
| 30 | 14:10 | W 9 | 10.00 | Mostly Cloudy | SCT042 BKN048 BKN050 | 86 | 64.4 | 49% | 87 | 29.83 | 0.0 | ||||||
| 30 | 13:50 | NW 12 | 10.00 | Partly Cloudy | SCT040 | 82.4 | 64.4 | 55% | 84 | 29.83 | 0.0 | ||||||
| 30 | 13:30 | NW 10 | 10.00 | Partly Cloudy | SCT037 | 82.4 | 64.4 | 55% | 84 | 29.84 | 0.0 | ||||||
| 30 | 13:10 | W 8 | 10.00 | Partly Cloudy | SCT035 | 82.4 | 64.4 | 55% | 84 | 29.85 | 0.0 | ||||||
| 30 | 12:50 | W 3 | 10.00 | Mostly Cloudy | SCT030 BKN035 | 80.6 | 64.4 | 58% | 82 | 29.85 | 0.0 | ||||||
| 30 | 12:30 | Calm | 10.00 | Partly Cloudy | SCT028 | 80.6 | 68 | 66% | 83 | 29.86 | 0.0 | ||||||
| 30 | 12:10 | Calm | 10.00 | Partly Cloudy | SCT023 | 80.6 | 68 | 66% | 83 | 29.86 | 0.0 | ||||||
| 30 | 11:50 | W 3 | 10.00 | Fair | CLR | 78.8 | 68 | 70% | 81 | 29.87 | 0.0 | ||||||
| 30 | 11:30 | Calm | 10.00 | Fair | CLR | 77 | 68 | 74% | 79 | 29.88 | 0.0 | ||||||
| 30 | 11:10 | W 3 | 10.00 | Fair | CLR | 77 | 68 | 74% | 79 | 29.88 | 0.0 | ||||||
| 30 | 10:50 | W 6 | 10.00 | Fair | CLR | 75.2 | 68 | 78% | 76 | 29.88 | 0.0 | ||||||
| 30 | 10:30 | W 6 | 10.00 | Partly Cloudy | SCT075 SCT090 | 73.4 | 68 | 83% | 29.88 | 0.0 | |||||||
| 30 | 10:10 | Calm | 10.00 | Partly Cloudy | SCT008 SCT090 | 71.6 | 68 | 88% | 29.87 | 0.0 | |||||||
| 30 | 09:50 | Calm | 10.00 | Partly Cloudy | SCT070 | 69.8 | 68 | 94% | 29.87 | 0.0 | |||||||
| 30 | 09:30 | Calm | 10.00 | Mostly Cloudy | BKN070 BKN090 | 69.8 | 68 | 94% | 29.87 | 0.0 | |||||||
| 30 | 09:10 | Calm | 10.00 | Mostly Cloudy | BKN070 BKN090 | 68 | 66.2 | 94% | 29.88 | 0.0 | |||||||
| 30 | 08:50 | Calm | 10.00 | Light Rain | OVC060 | 68 | 66.2 | 94% | 29.88 | 0.0 | |||||||
| 30 | 08:30 | Calm | 10.00 | Overcast | BKN060 OVC110 | 68 | 66.2 | 94% | 29.87 | 0.0 | |||||||
| 30 | 08:10 | Calm | 10.00 | Light Rain | BKN110 | 68 | 66.2 | 94% | 29.87 | 0.0 | |||||||
| 30 | 07:50 | Calm | 10.00 | Light Rain | SCT050 SCT080 OVC110 | 68 | 66.2 | 94% | 29.86 | 0.0 | |||||||
| 30 | 07:30 | NW 6 | 10.00 | Light Rain | SCT013 BKN060 OVC100 | 68 | 64.4 | 88% | 29.87 | 0.0 | |||||||
| 30 | 07:10 | NW 9 | 10.00 | Rain | SCT017 BKN065 OVC110 | 71.6 | 68 | 88% | 29.87 | 0.0 | |||||||
| 30 | 06:55 | Calm | 10.00 | Overcast | BKN075 BKN090 OVC120 | 71.6 | 68 | 88% | 29.84 | 0.0 | |||||||
| 30 | 06:30 | Calm | 10.00 | Light Rain | SCT075 BKN120 | 73.4 | 68 | 83% | 29.83 | 0.0 | |||||||
| 30 | 06:10 | Calm | 10.00 | Partly Cloudy | SCT075 SCT120 | 73.4 | 68 | 83% | 29.82 | 0.0 | |||||||
| 30 | 05:50 | Calm | 10.00 | Partly Cloudy | SCT075 | 73.4 | 68 | 83% | 29.82 | 0.0 | |||||||
| 30 | 05:30 | Calm | 10.00 | Partly Cloudy | SCT100 SCT120 | 73.4 | 68 | 83% | 29.8 | 0.0 | |||||||
| 30 | 05:13 | Calm | 10.00 | Partly Cloudy | SCT110 | 73.4 | 68 | 83% | 29.82 | 0.0 | |||||||
| 30 | 04:50 | Calm | 10.00 | Light Rain | SCT050 SCT080 BKN110 | 73.4 | 68 | 83% | 29.79 | 0.0 | |||||||
| 30 | 04:30 | Calm | 10.00 | Light Drizzle | SCT050 SCT090 BKN110 | 75.2 | 68 | 78% | 76 | 29.83 | 0.0 | ||||||
| 30 | 04:10 | Calm | 10.00 | Mostly Cloudy | SCT090 BKN120 | 75.2 | 66.2 | 74% | 77 | 29.84 | 0.0 | ||||||
| 30 | 03:50 | Calm | 10.00 | Partly Cloudy | SCT090 | 77 | 66.2 | 69% | 79 | 29.83 | 0.0 | ||||||
| 30 | 03:30 | Calm | 10.00 | Fair | CLR | 75.2 | 66.2 | 74% | 77 | 29.82 | 0.0 | ||||||
| 30 | 03:10 | Calm | 10.00 | Fair | CLR | 75.2 | 66.2 | 74% | 77 | 29.82 | 0.0 | ||||||
| 30 | 02:50 | Calm | 10.00 | Fair | CLR | 77 | 66.2 | 69% | 79 | 29.82 | 0.0 | ||||||
| 30 | 02:30 | Calm | 10.00 | Fair | CLR | 77 | 64.4 | 65% | 79 | 29.84 | 0.0 | ||||||
| 30 | 02:10 | Calm | 10.00 | Fair | CLR | 77 | 64.4 | 65% | 79 | 29.85 | 0.0 | ||||||
| 30 | 01:50 | Calm | 10.00 | Fair | CLR | 78.8 | 64.4 | 61% | 81 | 29.86 | 0.0 | ||||||
| 30 | 01:30 | Calm | 10.00 | Fair | CLR | 78.8 | 64.4 | 61% | 81 | 29.88 | 0.0 | ||||||
| 30 | 01:10 | Calm | 10.00 | Fair | CLR | 78.8 | 64.4 | 61% | 81 | 29.88 | 0.0 | ||||||
| 30 | 00:50 | Calm | 10.00 | Fair | CLR | 78.8 | 64.4 | 61% | 81 | 29.88 | 0.0 | ||||||
| 30 | 00:30 | Calm | 10.00 | Fair | CLR | 78.8 | 64.4 | 61% | 81 | 29.89 | 0.0 | ||||||
| 30 | 00:10 | Calm | 10.00 | Fair | CLR | 80.6 | 64.4 | 58% | 82 | 29.89 | 0.0 | ||||||
| 29 | 23:50 | W 5 | 10.00 | Partly Cloudy | SCT085 | 80.6 | 62.6 | 54% | 82 | 29.89 | 0.0 | ||||||
| 29 | 23:30 | Calm | 10.00 | Mostly Cloudy | BKN085 | 80.6 | 62.6 | 54% | 82 | 29.9 | 0.0 | ||||||
| 29 | 23:10 | Calm | 10.00 | Mostly Cloudy | SCT080 BKN095 | 80.6 | 62.6 | 54% | 82 | 29.9 | 0.0 | ||||||
| 29 | 22:50 | Calm | 10.00 | Mostly Cloudy | BKN080 | 80.6 | 62.6 | 54% | 82 | 29.9 | 0.0 | ||||||
| 29 | 22:30 | Calm | 10.00 | Overcast | OVC090 | 77 | 68 | 74% | 79 | 29.9 | 0.0 | ||||||
| 29 | 22:10 | Calm | 10.00 | Overcast | OVC090 | 77 | 66.2 | 69% | 79 | 29.89 | 0.0 | ||||||
| 29 | 21:50 | Calm | 10.00 | Mostly Cloudy | BKN090 | 77 | 64.4 | 65% | 79 | 29.88 | 0.0 | ||||||
| 29 | 21:30 | Calm | 10.00 | Mostly Cloudy | BKN090 | 78.8 | 64.4 | 61% | 81 | 29.87 | 0.0 | ||||||
| 29 | 21:10 | Calm | 10.00 | Overcast | OVC090 | 77 | 64.4 | 65% | 79 | 29.87 | 0.0 | ||||||
| 29 | 20:50 | Calm | 10.00 | Mostly Cloudy | BKN080 | 78.8 | 64.4 | 61% | 81 | 29.86 | 0.0 | ||||||
| 29 | 20:30 | Calm | 10.00 | Mostly Cloudy | BKN080 | 78.8 | 62.6 | 58% | 80 | 29.85 | 0.0 | ||||||
| 29 | 20:10 | Calm | 10.00 | Partly Cloudy | SCT080 | 80.6 | 62.6 | 54% | 82 | 29.85 | 0.0 | ||||||
| 29 | 19:50 | Calm | 10.00 | Mostly Cloudy | BKN080 | 87.8 | 57.2 | 35% | 87 | 29.83 | 0.0 | ||||||
| 29 | 19:30 | Calm | 10.00 | Partly Cloudy | SCT080 | 87.8 | 57.2 | 35% | 87 | 29.84 | 0.0 | ||||||
| 29 | 19:10 | NW 5 | 10.00 | Fair | CLR | 89.6 | 55.4 | 31% | 88 | 29.84 | 0.0 | ||||||
| 29 | 18:57 | Calm | 10.00 | Fair | CLR | 91.4 | 57.2 | 32% | 90 | 29.84 | 0.0 | ||||||
| Date | Time (edt) | Wind (mph) | Vis. (mi.) | Weather | Sky Cond. | Air | Dwpt | Max. | Min. | Relative Humidity | Wind Chill (°F) | Heat Index (°F) | altimeter (in) | sea level (mb) | 1 hr | 3 hr | 6 hr |
| 6 hour | |||||||||||||||||
| Temperature (ºF) | Pressure | Precipitation (in) | |||||||||||||||